Location: Argonnex
(45.9500°N, 6.1333°E)
Time: 05:50:52
(UTC+00:00)

PAYLOAD B - Pass Details

Date: 28 January 2023
Orbit: 849 x 870 km, 99.1° (Epoch: 21 March)

Event Time Altitude Azimuth Distance (km) Brightness Sun altitude
Rises 18:00:02 0° 159° (SSE) 3,424 7.3 -14.9°
Reaches altitude 10° 18:02:24 10° 158° (SSE) 2,488 6.5 -15.3°
Maximum altitude 18:07:55 78° 73° (ENE) 879 4.1 -16.2°
Drops below altitude 10° 18:13:27 10° 348° (NNW) 2,492 6.7 -17.2°
Sets 18:15:49 0° 347° (NNW) 3,430 7.4 -17.6°
